Location: *
(37.4917°N, 71.5558°E)
Time: 08:44:26
(UTC+00:00)

Cosmos 1340 Rocket - Pass Details

Date: 09 April 2020
Orbit: 529 x 559 km, 81.2° (Epoch: 03 June)

Event Time Altitude Azimuth Distance (km) Brightness Sun altitude
Rises 14:14:46 0° 160° (SSE) 2,726 6.0 -6.8°
Reaches altitude 10° 14:17:13 10° 147° (SSE) 1,833 5.0 -7.3°
Maximum altitude 14:20:32 25° 92° (E) 1,139 3.9 -7.9°
Drops below altitude 10° 14:23:52 10° 36° (NE) 1,833 5.3 -8.5°
Sets 14:26:18 0° 23° (NNE) 2,727 6.3 -9.0°
